Regional Weather Roundup
Issued by NWS

Home | Current Version | Previous Version | Graphics & Text | Print | Product List | Glossary On
Versions: 1 2 3 4 5 6 7 8 9 10 11 12 13 14 15 16 17 18 19 20 21 22 23 24 25 26 27 28 29 30 31 32 33 34 35 36 37 38 39 40 41 42 43 44 45 46 47 48 49 50
463
ASUS45 KSLC 190510
RWRUT

UTAH REGIONAL WEATHER ROUNDUP
NATIONAL WEATHER SERVICE SALT LAKE CITY UT
1100 PM MDT FRI AUG 18 2017

UTZ001>011-023>025-190600-

NORTHERN UTAH

CITY           SKY/WX    TMP DP  RH WIND       PRES   REMARKS
BRIGHAM CITY     N/A     71  39  31 CALM      30.07F
HILL AFB         N/A     72  30  21 E14       30.10F
LOGAN            N/A     67  41  38 SW5       30.09S
OGDEN            N/A     71  33  24 S10       30.07S
SALT LAKE CITY   N/A     76  37  24 SE8       30.06S
TOOELE VALLEY    N/A     68  37  32 S9        30.08F
WENDOVER         N/A     75  36  24 W5        30.06S
HEBER CITY       N/A     55  43  62 E5        30.17S
WEST JORDAN      N/A     72  47  40 CALM      30.10S

$$

UTZ011>015-024>027-190600-

CENTRAL/NORTHEAST UTAH

CITY           SKY/WX    TMP DP  RH WIND       PRES   REMARKS
PROVO AIRPORT    N/A     68  53  58 E3        30.10R
MOAB/CANYONLAN   N/A     74  30  19 SW5       30.04S
DELTA            N/A     72  34  25 NE5       30.08F
PRICE            N/A     73  36  25 W5        30.18S
ROOSEVELT      CLEAR     63  46  55 SW3       30.15S
VERNAL         CLEAR     71  44  37 NW6       30.12S

$$

UTZ013>016-019>022-027-190600-

SOUTHERN UTAH

CITY           SKY/WX    TMP DP  RH WIND       PRES   REMARKS
BRYCE CANYON     N/A     53  41  63 W8        30.36R
CEDAR CITY       N/A     73  40  30 SE7       30.17R
MILFORD          N/A     75  34  22 W8        30.11R
ST GEORGE        N/A     84  42  22 S3        29.95R
HANKSVILLE       N/A     73  30  20 E6        30.07S
BLANDING         N/A     67  33  28 N8        30.25S

$$

REGIONAL REPORTS     COLORADO/ARIZONA

CITY           SKY/WX    TMP DP  RH WIND       PRES   REMARKS
CRAIG, CO        N/A     55  39  54 E5        30.21S
GRAND JUNCTION   N/A     72  30  21 E8        30.09S
RIFLE, CO        N/A     68  30  24 SE5       30.17R
MONTROSE, CO     N/A     67  41  38 SE10      30.22R
CORTEZ, CO       N/A     61  35  37 NE7       30.21R
COLORADO CITY    N/A     64  45  48 CALM      30.15R
PAGE, AZ         N/A     82  37  20 S5        30.04R
GRAND CANYON     N/A     55  35  47 CALM      30.30R
KINGMAN, AZ      N/A     77  36  22 S10       30.04R
FLAGSTAFF, AZ    N/A     53  37  54 CALM      30.34R

$$

REGIONAL REPORTS    NEVADA/IDAHO/WYOMING

CITY           SKY/WX    TMP DP  RH WIND       PRES   REMARKS
LAS VEGAS, NV    N/A     94  33  11 CALM      29.90R
ELY, NY          N/A     73  33  23 E5        30.23R
ELKO, NV         N/A     66  24  20 N3        30.12S
POCATELLO, ID  CLEAR     62  29  28 S3        30.08F
BURLEY, ID       N/A     63  41  44 SW9       30.05S
FORT BRIDGER,    N/A     64  27  25 SW9       30.31S
EVANSTON, WY     N/A     61  29  29 SW6       30.29F
ROCK SPRINGS,    N/A     64  28  25 SW8       30.25S
KEMMERER, WY     N/A     59  30  33 CALM      30.30S

$$




USA.gov is the U.S. government's official web portal to all federal, state and local government web resources and services.